FW5359 Weather Reports


time (UTC)temp
C
wind
direction
speed
KPH
gust
KPH
rain 1hr
cm
rain 24hr
cm
rain mn
cm
humidity
%
barometer
mb
20260503022118 17 78 0.0 0.0 0.00 0.00 0.00 62 1022.2
20260503021613 17 78 0.0 0.0 0.00 0.00 0.00 62 1022.2
20260503021339 17 78 0.0 1.6 0.00 0.00 0.00 61 1022.0
20260503020601 17 78 0.0 1.6 0.00 0.00 0.00 60 1021.9
20260503020055 17 78 0.0 0.0 0.00 0.00 0.00 60 1021.9
20260503015549 17 78 0.0 0.0 0.00 0.00 0.00 59 1021.7
20260503015043 18 78 0.0 0.0 0.00 0.00 0.00 58 1021.6
20260503014807 18 78 0.0 0.0 0.00 0.00 0.00 56 1021.5
20260503014031 18 78 0.0 0.0 0.00 0.00 0.00 56 1021.3
20260503013525 18 78 0.0 3.2 0.00 0.00 0.00 53 1021.3
20260503013019 18 78 0.0 3.2 0.00 0.00 0.00 53 1021.2
20260503012514 19 78 0.0 3.2 0.00 0.00 0.00 53 1021.2
20260503012007 19 78 1.6 3.2 0.00 0.00 0.00 52 1021.1
20260503011501 19 78 1.6 3.2 0.00 0.00 0.00 52 1021.1
20260503010955 20 78 1.6 3.2 0.00 0.00 0.00 52 1020.9
20260503010449 20 78 1.6 4.8 0.00 0.00 0.00 51 1021.0
20260503005943 20 78 1.6 6.4 0.00 0.00 0.00 51 1020.9
20260503005707 20 78 1.6 6.4 0.00 0.00 0.00 50 1020.9
20260503005203 20 78 1.6 6.4 0.00 0.00 0.00 50 1020.7
20260503004655 20 79 1.6 6.4 0.00 0.00 0.00 49 1020.7
20260503003919 21 78 1.6 6.4 0.00 0.00 0.00 49 1020.7
20260503003412 21 77 1.6 8.0 0.00 0.00 0.00 49 1020.6
20260503002906 21 76 1.6 8.0 0.00 0.00 0.00 48 1020.6
20260503002402 21 76 3.2 9.7 0.00 0.00 0.00 47 1020.5
20260503001855 21 76 3.2 11.3 0.00 0.00 0.00 47 1020.5
20260503001620 22 65 3.2 11.3 0.00 0.00 0.00 46 1020.6
20260503000843 22 81 4.8 11.3 0.00 0.00 0.00 46 1020.6
20260503000336 22 77 3.2 6.4 0.00 0.00 0.00 46 1020.7
20260502235831 22 69 3.2 8.0 0.00 0.00 0.00 46 1020.7
20260502235325 22 69 3.2 8.0 0.00 0.00 0.00 45 1020.7
20260502234820 22 69 3.2 9.7 0.00 0.00 0.00 44 1020.7
20260502234313 22 71 3.2 9.7 0.00 0.00 0.00 44 1020.7
20260502233301 22 54 3.2 9.7 0.00 0.00 0.00 45 1020.7
20260502232255 23 61 3.2 11.3 0.00 0.00 0.00 43 1020.7
20260502231753 23 60 3.2 11.3 0.00 0.00 0.00 44 1020.7
20260502231252 23 69 3.2 9.7 0.00 0.00 0.00 44 1020.6
20260502231024 23 57 4.8 14.5 0.00 0.00 0.00 44 1020.7
20260502230251 23 46 4.8 14.5 0.00 0.00 0.00 43 1020.9
20260502225751 23 71 3.2 11.3 0.00 0.00 0.00 43 1020.7
20260502225251 23 96 3.2 11.3 0.00 0.00 0.00 43 1020.7
20260502224749 22 80 4.8 11.3 0.00 0.00 0.00 44 1020.7
20260502224247 22 82 3.2 8.0 0.00 0.00 0.00 42 1020.7
20260502223747 22 80 3.2 9.7 0.00 0.00 0.00 44 1020.7
20260502223246 22 80 3.2 9.7 0.00 0.00 0.00 43 1020.7
20260502222747 22 98 3.2 9.7 0.00 0.00 0.00 45 1020.7
20260502222247 22 58 3.2 8.0 0.00 0.00 0.00 45 1020.7
20260502221747 22 55 4.8 12.9 0.00 0.00 0.00 47 1020.7
20260502221246 22 71 6.4 16.1 0.00 0.00 0.00 44 1020.9
20260502220749 22 153 6.4 17.7 0.00 0.00 0.00 45 1020.7
20260502220522 22 81 6.4 17.7 0.00 0.00 0.00 45 1020.9
20260502215745 22 56 4.8 17.7 0.00 0.00 0.00 46 1020.9
20260502215247 23 57 3.2 14.5 0.00 0.00 0.00 45 1020.9
20260502214747 23 74 3.2 14.5 0.00 0.00 0.00 45 1020.9
20260502214245 22 50 4.8 16.1 0.00 0.00 0.00 45 1021.0
20260502213745 22 30 6.4 19.3 0.00 0.00 0.00 44 1021.1
20260502212744 23 65 6.4 17.7 0.00 0.00 0.00 42 1021.1
20260502212245 23 71 4.8 24.1 0.00 0.00 0.00 43 1021.1
20260502211745 23 348 3.2 24.1 0.00 0.03 0.00 44 1021.2
20260502211245 23 82 3.2 14.5 0.00 0.03 0.00 45 1021.3
20260502210745 23 63 4.8 14.5 0.00 0.03 0.00 46 1021.3
20260502210244 23 45 4.8 16.1 0.00 0.05 0.00 44 1021.5
20260502205245 23 67 4.8 14.5 0.00 0.15 0.00 46 1021.6
20260502204745 23 53 6.4 14.5 0.00 0.15 0.00 45 1021.7
20260502204245 22 57 4.8 16.1 0.00 0.15 0.00 46 1021.7
20260502203745 22 16 3.2 16.1 0.00 0.15 0.00 46 1021.7
20260502203243 22 75 3.2 14.5 0.00 0.15 0.00 47 1021.8
20260502202738 22 73 6.4 20.9 0.00 0.15 0.00 45 1021.8
20260502202232 22 56 4.8 20.9 0.00 0.15 0.00 44 1021.9
20260502201957 22 70 6.4 17.7 0.00 0.15 0.00 46 1021.9
20260502201220 22 12 6.4 17.7 0.00 0.15 0.00 45 1022.0
20260502200714 22 5 6.4 17.7 0.00 0.15 0.00 45 1022.0
20260502195702 22 32 4.8 16.1 0.00 0.18 0.00 48 1022.0
20260502195156 22 41 4.8 16.1 0.00 0.20 0.00 49 1022.1
20260502194650 22 42 4.8 16.1 0.00 0.23 0.00 50 1022.1
20260502194144 22 38 4.8 20.9 0.00 0.23 0.00 49 1022.2
20260502193637 22 32 6.4 20.9 0.00 0.23 0.00 50 1022.1
20260502193132 22 39 6.4 17.7 0.00 0.23 0.00 49 1022.2
20260502192626 21 82 6.4 19.3 0.00 0.23 0.00 51 1022.1
20260502192119 22 61 6.4 19.3 0.00 0.23 0.00 51 1022.2
20260502191614 21 144 6.4 16.1 0.00 0.23 0.00 52 1022.2
20260502191108 21 42 8.0 20.9 0.00 0.23 0.00 53 1022.3
20260502190602 21 28 8.0 22.5 0.00 0.23 0.00 51 1022.4
20260502190326 21 83 8.0 22.5 0.00 0.23 0.00 51 1022.4
20260502185550 21 62 8.0 20.9 0.00 0.23 0.00 51 1022.4
20260502185314 21 38 8.0 22.5 0.00 0.23 0.00 51 1022.4
20260502184808 21 74 6.4 22.5 0.00 0.23 0.00 52 1022.5
20260502184032 21 49 8.0 22.5 0.00 0.23 0.00 53 1022.6
20260502183526 21 21 8.0 22.5 0.00 0.23 0.00 52 1022.7
20260502183020 21 35 6.4 20.9 0.00 0.23 0.00 53 1022.7
20260502182514 21 36 6.4 19.3 0.00 0.23 0.00 54 1022.7
20260502182008 20 38 8.0 19.3 0.00 0.23 0.00 55 1022.9
20260502181502 20 67 6.4 19.3 0.00 0.28 0.00 55 1022.8
20260502181001 21 17 6.4 20.9 0.00 0.30 0.00 57 1022.9
20260502180449 20 50 6.4 22.5 0.00 0.30 0.00 56 1022.9
20260502164314 19 79 8.0 20.9 0.00 0.66 0.00 59 1023.8
20260502163808 18 39 9.7 20.9 0.00 0.71 0.00 55 1023.8
20260502163534 18 79 9.7 22.5 0.00 0.74 0.00 55 1023.8
20260502163026 18 61 8.0 22.5 0.00 0.74 0.00 56 1023.8
20260502162250 19 53 6.4 19.3 0.00 0.74 0.00 57 1023.8
20260502161744 18 65 6.4 20.9 0.00 0.74 0.00 58 1023.8
20260502161238 18 71 6.4 24.1 0.00 0.74 0.00 57 1023.9
20260502160732 18 28 8.0 22.5 0.00 0.74 0.00 57 1023.9
20260502160226 18 57 9.7 24.1 0.00 0.74 0.00 57 1023.8
20260502152224 17 102 9.7 22.5 0.00 0.74 0.00 64 1023.5
20260502151724 17 60 8.0 20.9 0.00 0.74 0.00 63 1023.4
20260502151456 17 98 8.0 20.9 0.00 0.74 0.00 63 1023.5
20260502150723 16 37 6.4 20.9 0.00 0.74 0.00 65 1023.3
20260502150224 16 81 6.4 19.3 0.00 0.74 0.00 65 1023.2
20260502130717 12 42 4.8 20.9 0.00 1.32 0.00 77 1022.1
20260502130218 12 70 6.4 20.9 0.00 1.73 0.00 78 1022.1
20260502123716 11 53 1.6 9.7 0.00 1.83 0.00 81 1021.7
20260502123214 11 66 3.2 12.9 0.00 1.83 0.00 81 1021.7
20260502122711 11 37 4.8 14.5 0.00 1.83 0.00 81 1021.6
20260502122442 11 340 4.8 14.5 0.00 1.83 0.00 82 1021.5
20260502121712 10 40 3.2 14.5 0.00 1.83 0.00 82 1021.4
20260502121211 10 52 3.2 17.7 0.00 1.83 0.00 82 1021.3
20260502120212 10 49 4.8 17.7 0.00 1.83 0.00 83 1021.1
20260502115211 10 49 3.2 17.7 0.00 1.83 0.00 83 1020.9
20260502114705 10 63 3.2 14.5 0.00 1.83 0.00 84 1020.9
20260502114159 10 5 3.2 12.9 0.00 1.83 0.00 84 1020.9
20260502113652 10 48 3.2 12.9 0.00 1.83 0.00 84 1020.7
20260502113147 10 17 4.8 12.9 0.00 1.83 0.00 84 1020.7
20260502112641 10 0 3.2 12.9 0.00 1.83 0.00 84 1020.6
20260502112135 10 34 3.2 12.9 0.00 1.83 0.00 84 1020.7
20260502111629 10 355 1.6 12.9 0.00 1.83 0.00 84 1020.7
20260502111353 10 21 1.6 8.0 0.00 1.85 0.00 84 1020.6
20260502110617 10 355 1.6 9.7 0.00 1.85 0.00 84 1020.6
20260502110111 10 314 3.2 14.5 0.00 1.88 0.00 84 1020.6
20260502105604 10 24 3.2 14.5 0.00 1.91 0.00 84 1020.6
20260502105059 10 66 1.6 14.5 0.00 1.91 0.00 84 1020.5
20260502104553 10 300 3.2 11.3 0.00 1.93 0.00 84 1020.5
20260502104047 10 84 1.6 11.3 0.00 1.96 0.00 84 1020.6
20260502103813 10 46 1.6 16.1 0.00 1.96 0.00 84 1020.4
20260502103035 10 49 3.2 16.1 0.00 1.98 0.00 84 1020.4
20260502102529 10 293 3.2 14.5 0.00 2.01 0.00 84 1020.4
20260502102022 10 297 3.2 16.1 0.00 2.06 0.00 84 1020.4
20260502101517 10 5 3.2 16.1 0.00 2.16 0.00 85 1020.4
20260502101011 10 83 3.2 16.1 0.00 2.36 0.00 85 1020.3
20260502100504 10 30 3.2 14.5 0.00 2.46 0.00 85 1020.3
20260502091405 10 69 0.0 8.0 0.00 2.62 0.00 86 1019.3
20260502090859 10 67 0.0 4.8 0.00 2.62 0.00 86 1019.3
20260502090353 10 67 0.0 4.8 0.00 2.69 0.00 86 1019.2
20260502070811 11 53 3.2 11.3 0.00 3.81 0.00 86 1018.4
20260502070311 11 26 3.2 14.5 0.00 3.81 0.00 86 1018.5
20260502065810 11 51 3.2 14.5 0.00 3.84 0.00 86 1018.5
20260502065311 11 61 4.8 16.1 0.00 3.84 0.00 86 1018.6
20260502064811 11 51 6.4 17.7 0.00 3.84 0.00 86 1018.6
20260502064311 11 53 4.8 17.7 0.00 3.84 0.00 86 1018.6
20260502063806 11 34 4.8 16.1 0.00 3.84 0.00 86 1018.7
20260502063306 11 23 4.8 14.5 0.00 3.86 0.00 86 1018.8
20260502063037 11 67 3.2 14.5 0.00 3.86 0.00 86 1018.7
20260502062307 11 31 4.8 19.3 0.00 3.91 0.00 86 1018.6
20260502061806 11 46 4.8 19.3 0.00 4.14 0.00 86 1018.5
20260502061307 11 80 4.8 16.1 0.00 4.22 0.00 86 1018.5
20260502060807 11 63 4.8 14.5 0.00 4.22 0.00 86 1018.5
20260502060307 11 84 3.2 14.5 0.00 4.22 0.00 85 1018.6
20260502055806 11 42 3.2 16.1 0.00 4.22 0.00 85 1018.7
20260502055306 11 34 3.2 16.1 0.00 4.22 0.00 85 1018.8
20260502054809 11 37 4.8 12.9 0.00 4.22 0.00 85 1018.8
20260502054307 11 65 4.8 16.1 0.00 4.22 0.00 85 1018.8
20260502054037 11 38 4.8 17.7 0.00 4.22 0.00 85 1018.7
20260502053306 11 58 6.4 19.3 0.00 4.22 0.00 85 1018.7
20260502053029 11 48 6.4 19.3 0.00 4.24 0.00 85 1018.6
20260502052252 11 355 8.0 19.3 0.00 4.34 0.00 85 1018.6
20260502051746 11 348 8.0 19.3 0.00 4.45 0.00 85 1018.6
20260502050735 11 33 6.4 22.5 0.00 4.52 0.00 85 1017.9
20260502050228 11 34 8.0 22.5 0.00 4.52 0.00 85 1018.2
20260502045724 11 41 6.4 20.9 0.00 4.52 4.52 85 1018.4
20260502045218 11 53 4.8 16.1 0.00 4.52 4.52 85 1018.6
20260502044712 11 78 6.4 19.3 0.00 4.52 4.52 85 1018.7
20260502044208 11 70 8.0 19.3 0.00 4.52 4.52 85 1018.8
20260502043708 11 51 6.4 20.9 0.00 4.52 4.52 85 1018.7
20260502043206 11 60 6.4 20.9 0.00 4.52 4.52 85 1018.6
20260502042705 11 55 6.4 19.3 0.00 4.52 4.52 84 1018.5
20260502042434 11 36 6.4 19.3 0.00 4.52 4.52 84 1018.5
20260502041704 11 34 8.0 27.4 0.00 4.52 4.52 84 1018.6
20260502041204 12 42 8.0 27.4 0.00 4.52 4.52 84 1018.6
20260502040936 12 45 8.0 22.5 0.00 4.52 4.52 84 1018.8
20260502040204 12 86 9.7 25.7 0.00 4.52 4.52 84 1018.7
20260502035704 12 40 9.7 25.7 0.00 4.52 4.52 85 1018.6
20260502035205 12 38 9.7 24.1 0.00 4.52 4.52 85 1018.7
20260502034704 12 65 9.7 25.7 0.00 4.52 4.52 85 1018.5
20260502034204 12 59 9.7 25.7 0.00 4.52 4.52 85 1018.5
20260502033934 12 60 9.7 25.7 0.00 4.52 4.52 85 1018.5
20260502033435 12 70 8.0 22.5 0.00 4.52 4.52 85 1018.4
20260502032704 12 50 8.0 22.5 0.00 4.52 4.52 85 1018.4
20260502032204 12 55 8.0 22.5 0.00 4.52 4.52 85 1018.4
20260502031934 12 100 8.0 25.7 0.00 4.52 4.52 85 1018.3
20260502031203 12 76 9.7 25.7 0.00 4.52 4.52 85 1017.9
20260502030703 12 355 9.7 25.7 0.00 4.52 4.52 85 1017.8
20260502030201 12 25 9.7 27.4 0.00 4.52 4.52 85 1017.7
20260502025702 12 49 9.7 27.4 0.00 4.52 4.52 85 1017.6
20260502025202 12 57 9.7 25.7 0.00 4.52 4.52 85 1017.5
20260502024702 12 41 8.0 25.7 0.00 4.52 4.52 85 1017.4
20260502024201 11 5 8.0 27.4 0.00 4.52 4.52 85 1017.4
20260502023657 11 74 8.0 29.0 0.00 4.52 4.52 85 1017.3
20260502023156 12 52 9.7 29.0 0.00 4.52 4.52 85 1017.3
20260502022656 12 65 9.7 25.7 0.00 4.52 4.52 85 1017.3
20260502022155 12 41 11.3 29.0 0.00 4.52 4.52 84 1017.0